Location: Unspecified
(0.0000°N, 0.0000°E)
Time: 07:12:49
(UTC+00:00)

ISS - Pass Details

Date: 18 September 2021
Orbit: 419 x 423 km, 51.6° (Epoch: 18 September)

Event Time Altitude Azimuth Distance (km) Brightness Sun altitude
Exits shadow 03:56:41 16° 110° (ESE) 1,187 -0.8 -29.4°
Drops below altitude 10° 03:57:35 10° 119° (ESE) 1,502 -0.3 -29.1°
Sets 03:59:50 0° 129° (SE) 2,369 0.7 -28.6°
